Notices

What's New in latest Release from April 7th, 2021:

- Updated Glossary, including Speed of Maximum Gust, and Total Hourly Precipitation

- Updated national and regional climate services offices contacts and prices information

- Addition of station inventory lists for 1981-2010, 1971-2000, and 1961-1990 Normals.

If you haven't already, please take our survey and provide feedback about our website: https://eccc.sondage-survey.ca/f/LanguageSelection.aspx?s=442ca660-fcf1-47c0-95a9-59707d6fd709

Hourly Data Report for April 19, 2016

MIRAMICHI RCS
NEW BRUNSWICK

47°00'34.000" N
65°27'54.000" W
33.00 m
8100989
71744
ACQ

Download Data

Hourly Data (April 2016)
Hourly Data Report for April 19, 2016
TIME
LST
Temp Definition
°C
Dew Point Definition
°C
Rel Hum Definition
%
Precip. Amount Definition
mm

Wind Dir Definition
10's deg

Wind Spd Definition
km/h
Visibility Definition
km
Stn Press Definition
kPa
Hmdx Definition


Wind Chill Definition


Weather Definition


00:00 -2.4 -5.2 81 0.0 0 1   101.82   -3 LegendNANA
01:00 -3.0 -5.1 85 0.0 0 1   101.73   -3 LegendNANA
02:00 -2.7 -4.6 87 0.0 36 1   101.65   -3 LegendNANA
03:00 -3.0 -4.8 88 0.0 31 2   101.59   -4 LegendNANA
04:00 -3.4 -5.0 89 0.0 0 1   101.57   -4 LegendNANA
05:00 -3.8 -5.2 90 0.0 0 1   101.54   -4 LegendNANA
06:00 -3.8 -5.1 91 0.0   0   101.50     LegendNANA
07:00 -2.4 -4.2 88 0.0   0   101.49     LegendNANA
08:00 -0.2 -3.8 77 0.0 10 4   101.45   -1 LegendNANA
09:00 1.9 -3.8 66 0.0 8 5   101.41     LegendNANA
10:00 3.6 -5.1 53 0.0 6 3   101.34     LegendNANA
11:00 5.0 -6.2 44 0.0 5 5   101.27     LegendNANA
12:00 6.0 -5.9 42 0.0 3 6   101.19     LegendNANA
13:00 7.2 -6.8 36 0.0 4 7   101.12     LegendNANA
14:00 8.2 -6.1 36 0.0 8 5   101.06     LegendNANA
15:00 7.7 -4.9 41 0.0 6 17   100.99     LegendNANA
16:00 6.8 -5.3 42 0.0 4 15   101.02     LegendNANA
17:00 5.9 -5.2 45 0.0 5 15   101.03     LegendNANA
18:00 5.0 -4.2 51 0.0 4 14   101.07     LegendNANA
19:00 4.3 -5.1 50 0.0 6 9   101.11     LegendNANA
20:00 2.9 -4.5 58 0.0 5 7   101.18     LegendNANA
21:00 1.9 -3.3 68 0.0 6 10   101.22     LegendNANA
22:00 1.4 -3.4 70 0.0 3 4   101.26     LegendNANA
23:00 1.1 -3.7 70 0.0 35 3   101.29     LegendNANA

Notes on Data Quality.

Legend

  • E = Estimated
  • M = Missing
  • NA = Not Available*
  • [empty] = Indicates an unobserved value
Date modified: